User: anonymous   Login
Location: Squamish
(49.7000°N, 123.1500°W)
Time: 00:33:46
(UTC-07:00)
Language:

NOAA 19 - Orbit

View from above orbital plane
View from above orbital plane
View from above satellite
View from above satellite

Ground track
Ground track

The orbit data is extracted from the following two-line orbital elements,

1 33591U 09005A   17262.92548508 +.00000094 +00000-0 +76432-4 0  9993
2 33591 099.1035 231.1460 0014260 010.2998 349.8462 14.12212458443769
Epoch (UTC): 19 September 2017 22:12:41
Eccentricity: 0.0014260
inclination: 99.1035°
perigee height: 841 km
apogee height: 862 km
right ascension of ascending node: 231.1460°
argument of perigee: 10.2998°
revolutions per day: 14.12212458
mean anomaly at epoch: 349.8462°
orbit number at epoch: 44376

The dashed part of the orbit path shows where the satellite is in the earth's shadow,  

DLR